Regional Weather Roundup
Issued by NWS Upton, NY

Current Version | Previous Version | Graphics & Text | Print | Product List | Glossary Off
Versions: 1 2 3 4 5 6 7 8 9 10 11 12 13 14 15 16 17 18 19 20 21 22 23 24 25 26 27 28 29 30 31 32 33 34 35 36 37 38 39 40 41 42 43 44 45 46 47 48 49 50

328
ASUS41 KOKX 220807
RWROKX

REGIONAL WEATHER ROUNDUP
NATIONAL WEATHER SERVICE NEW YORK NY
400 AM EDT WED MAR 22 2017

NOTE: "FAIR" INDICATES FEW OR NO CLOUDS BELOW 12,000 FEET WITH NO
SIGNIFICANT WEATHER AND/OR OBSTRUCTIONS TO VISIBILITY.

NYZ071-072-176-178-NJZ106-104-220900-
NEW YORK CITY METRO AREA

CITY           SKY/WX    TMP DP  RH WIND       PRES   REMARKS
Central Park   CLEAR     44  23  43 VRB6      29.90R
Wall St Helipt SUNNY     46  22  38 CALM      29.89R
LaGuardia APRT PTCLDY    46  23  40 NW22G29   29.87R
Kennedy INTL   PTCLDY    48  18  30 NW18      29.88R
Breezy Point     N/A     45 N/A N/A NW9         N/A
Newark/Liberty PTCLDY    47  19  33 NW13      29.88R
Teterboro      CLEAR     44  25  47 NW9       29.88R
$$

NYZ177-179-078>081-220900-
LONG ISLAND NEW YORK

CITY           SKY/WX    TMP DP  RH WIND       PRES   REMARKS
Jones Beach      N/A     46 N/A N/A NW9         N/A
Matinecock PT  NOT AVBL
Farmingdale    PTCLDY    44  19  36 NW8       29.86R
MacArthur/ISP  MOCLDY    42  24  49 NW9       29.84S
Shirley        PTCLDY    37  30  75 W5        29.85S WCI  33
Westhampton    MOCLDY    29  25  85 NW3       29.85S
East Hampton   CLOUDY    35  29  78 W5        29.81F WCI  31
Montauk          N/A     40  33  76 CALM      29.82S
$$

NYZ052-065-067-220900-
HUDSON VALLEY

CITY           SKY/WX    TMP DP  RH WIND       PRES   REMARKS
White Plains   CLEAR     41  22  46 NW15G22   29.85R
Newburgh       CLEAR     37  23  56 NW7       29.88  WCI  32
Montgomery     CLEAR     38  19  46 W13G24    29.89R WCI  30
Poughkeepsie   CLEAR     37  21  52 SW7       29.86S WCI  32
Albany         PTCLDY    36  25  64 W12G22    29.85R WCI  28
$$

NJZ001-105-106-008-010-013-015-019>022-104-220900-
NEW JERSEY

CITY           SKY/WX    TMP DP  RH WIND       PRES   REMARKS
Newark/Liberty PTCLDY    47  19  33 NW13      29.88R
Teterboro      CLEAR     44  25  47 NW9       29.88R
Caldwell       CLEAR     41  22  46 NW8       29.90R
Somerville     CLEAR     40  26  57 NW9       29.88R WCI  34
Linden           N/A     45  20  37 N13       29.88R
Sussex         CLEAR     39  24  55 NW10G17   29.92R WCI  32
Andover          N/A     39  24  55 VRB5      29.90R
Trenton        CLEAR     44  26  49 NW6       29.88S
Millville      CLOUDY    50  32  50 NW5       29.88F
Atlantic City  CLOUDY    47  35  63 W7        29.88F
Wrightstown    PTCLDY    44  32  63 NW5       29.85F
Toms River     PTCLDY    36  33  89 CALM      29.88F
Belmar         CLEAR    N/A N/A N/A W6        29.88S
$$

PAZ047>061-062-071-220900-
EASTERN PENNSYLVANIA

CITY           SKY/WX    TMP DP  RH WIND       PRES   REMARKS
Philadelphia   PTCLDY    48  26  42 NW8       29.89F
Allentown      CLEAR     40  25  55 NW10      29.91R WCI  33
Scranton       CLOUDY    35  19  52 NW17      29.96R WCI  25
$$

CTZ002-004>006-009-010-012-RIZ004-006-007-MAZ004-011-015-220900-
SOUTHERN NEW ENGLAND
 IN CT

CITY           SKY/WX    TMP DP  RH WIND       PRES   REMARKS
Bradley INTL   PTCLDY    38  23  55 NW12      29.82F WCI  30
Hartford       CLEAR     31  28  89 CALM      29.83S
Danbury        CLEAR     42  20  41 W9G22     29.85S
Wtrbury/Oxford CLEAR     37  19  48 W6        29.82F WCI  33
Bridgeport     CLEAR     42  25  50 W5        29.85R
Meriden        CLEAR     31  26  82 CALM      29.83R
New Haven      CLEAR     39  28  64 CALM      29.83S
Chester          N/A     39  23  52 W7        29.80S WCI  34
Groton         CLOUDY    38  30  73 W6        29.80F WCI  33
Wilimantic     CLEAR     29  25  85 CALM      29.81F

 IN RI

CITY           SKY/WX    TMP DP  RH WIND       PRES   REMARKS
Providence     MOCLDY    37  22  54 W6        29.77F WCI  32
Block Island   CLOUDY    39  33  79 SW9       29.80F WCI  33
Westerly       CLOUDY    38  28  67 CALM      29.80F
 IN MA

CITY           SKY/WX    TMP DP  RH WIND       PRES   REMARKS
Boston         PTCLDY    42  24  49 W17G25    29.75F
Worcester      CLEAR     35  18  49 W22G31    29.75S WCI  23
Westfield      CLEAR     37  21  52 NW14      29.82S WCI  28
Provincetown   CLEAR     35  30  82 SW8       29.76F WCI  29
Nantucket      CLOUDY    41  23  48 NW8       29.77F
$$

ANZ330-335-338-340-345-350-353-355-220900-
COASTAL MARINE OBSERVATIONS


STATION/POSITION TIME  SKY/WX   TEMP    WIND        PRES    VSBY  WAVE
                                AIR SEA DIR/SP/G                  HT/PER
                 (UTC)          (F)     (DEG/KT/KT) (MB)    (MI)  (FT/S)
NY HARB ENTRANCE 0650            47 43  350/  4/  4 1011.3          2/11
20 S FIRE ISLAND 0650            43 41  340/  4/  6 1010.8          2/11
GREAT SOUTH BAY  NOT AVBL
23 SSW MONTAUK P NOT AVBL
15 E BARNEGAT LI 0730               43                N/A           3/11
HUDSON CANYON    0650            48 46  250/ 10/ 12 1010.6          3/10
KINGS POINT      0736            44 39              1011.4
EXECUTION ROCKS  NOT AVBL
CENTRAL LI SOUND 0730            41     250/  8/  8   N/A           0
EASTERN LI SOUND NOT AVBL
ROBBINS REEF     0736            48     310/ 13/ 15 1011.6
$$


>>>>>>>>>>>>>>>>>>>>>>>>>>>> KEY <<<<<<<<<<<<<<<<<<<<<<<<<<<
>                                                          <
>     SKY/WX - Sky Condition/Present Weather               <
>     TMP    - Temperature in Fahrenheit                   <
>     DP     - Dew Point in Fahrenheit                     <
>     RH     - Relative Humidity in Percent                <
>     WIND   - Direction (from) and Speed in MPH           <
>     PRES   - Mean Sea Level Pressure (inches of Hg)      <
>     WCI    - Wind Chill Index                            <
>     VSB    - VISIBILITY IN MILES                         <
>     HX     - HEAT INDEX                                  <
>     TC     - TEMPERATURE IN CELSIUS                      <
>     VRB    - VARIABLE WIND DIRECTION                     <
>                                                          <
>>>>>>>>>>>>>>>>>>>>>>>>>>>> KEY <<<<<<<<<<<<<<<<<<<<<<<<<<<




USA.gov is the U.S. government's official web portal to all federal, state and local government web resources and services.